Date String (YYYY-MM-DD hh:mm:ss) UTC,Instrument flags,absolute air pressure of the measurement (hPa),sample flow rate (lpm),inlet stack bypass flow (lpm),air temperature of the measurement (°C),ambient temperature measured by the external sensor (°C),aerosol sample conditioner tube jacket temperature (°C),OPC LED temperature (°C),internal box temperature (°C),relative humidity of the measurement (%),span deviation,mass concentration of particles derived from Lorenz-Mie calculation of OPC scattering (μg/m³),mass concentration of particles derived from Lorenz-Mie calculation of OPC scattering (μg/m³),mass concentration of particles derived from Lorenz-Mie calculation of OPC scattering (μg/m³)
DateTimeUTC,F1_M11,P_M11,Q1_M11,Q2_M11,T1_M11,T2_M11,T3_M11,T4_M11,T5_M11,U1_M11,ZSPAN_M11,X0_M11,X2_M11,X1_M11
2024-04-17 12:00:00,SystemResetWarning,0825.9,5.00,000.00,025.9,025.2,000.0,034.4,027.8,013.6,0000.0,0008.22,0002.75,0001.72
2024-04-17 12:01:00,SystemResetWarning,0825.9,5.01,000.00,025.9,025.2,000.0,034.4,027.7,013.6,0000.0,0007.61,0002.78,0001.73
2024-04-17 12:02:00,SystemResetWarning,0825.9,5.01,000.00,025.9,025.2,000.0,034.4,027.8,013.4,0000.0,0007.23,0002.73,0001.73
2024-04-17 12:03:00,SystemResetWarning,0825.8,5.00,000.00,025.9,025.2,000.0,034.4,027.7,013.4,0000.0,0006.85,0002.67,0001.73
2024-04-17 12:04:00,SystemResetWarning,0825.9,4.99,000.00,025.9,025.2,000.0,034.4,027.8,013.5,0000.0,0006.53,0002.64,0001.73
2024-04-17 12:05:00,SystemResetWarning,0825.9,4.99,000.00,025.9,025.2,000.0,034.4,027.7,013.6,0000.0,0004.98,0002.59,0001.71
2024-04-17 12:06:00,SystemResetWarning,0826.0,5.00,000.00,025.9,025.2,000.0,034.4,027.8,013.4,0000.0,0004.70,0002.54,0001.71
2024-04-17 12:07:00,SystemResetWarning,0826.0,5.00,000.00,025.9,025.2,000.0,034.4,027.8,013.4,0000.0,0004.47,0002.48,0001.69
2024-04-17 12:08:00,SystemResetWarning,0826.0,5.01,000.00,025.9,025.2,000.0,034.4,027.7,013.4,0000.0,0004.48,0002.50,0001.70
2024-04-17 12:09:00,SystemResetWarning,0826.0,5.00,000.00,025.9,025.1,000.0,034.4,027.7,013.4,0000.0,0004.38,0002.48,0001.71
2024-04-17 12:10:00,SystemResetWarning,0826.0,5.00,000.00,025.9,025.1,000.0,034.4,027.7,013.4,0000.0,0004.22,0002.48,0001.73
2024-04-17 12:11:00,SystemResetWarning,0826.0,5.01,000.00,025.9,025.1,000.0,034.4,027.7,013.4,0000.0,0004.22,0002.54,0001.74
2024-04-17 12:12:00,SystemResetWarning,0826.0,5.00,000.00,025.9,025.1,000.0,034.4,027.7,013.3,0000.0,0003.98,0002.53,0001.73
2024-04-17 12:13:00,SystemResetWarning,0825.9,5.00,000.00,025.9,025.1,000.0,034.4,027.7,013.2,0000.0,0004.13,0002.57,0001.73
2024-04-17 12:14:00,SystemResetWarning,0825.9,5.00,000.00,025.9,025.1,000.0,034.4,027.7,013.2,0000.0,0004.17,0002.59,0001.74
2024-04-17 12:15:00,SystemResetWarning,0826.0,4.99,000.00,025.9,025.1,000.0,034.4,027.7,013.4,0000.0,0004.23,0002.61,0001.74
2024-04-17 12:16:00,SystemResetWarning,0826.0,5.00,000.00,025.9,025.1,000.0,034.4,027.7,013.5,0000.0,0004.56,0002.61,0001.75
2024-04-17 12:17:00,SystemResetWarning,0826.1,5.00,000.00,025.9,025.1,000.0,034.4,027.7,013.5,0000.0,0005.30,0002.63,0001.77
2024-04-17 12:18:00,SystemResetWarning,0826.1,5.00,000.00,025.9,025.1,000.0,034.4,027.7,013.5,0000.0,0005.58,0002.68,0001.77
2024-04-17 12:19:00,SystemResetWarning,0826.0,5.00,000.00,025.9,025.1,000.0,034.4,027.7,013.8,0000.0,0006.25,0002.73,0001.77
2024-04-17 12:20:00,SystemResetWarning,0826.1,5.00,000.00,025.9,025.1,000.0,034.4,027.7,013.8,0000.0,0007.47,0002.81,0001.77
2024-04-17 12:21:00,SystemResetWarning,0826.1,5.00,000.00,025.9,025.1,000.0,034.4,027.7,013.8,0000.0,0007.85,0002.80,0001.75
2024-04-17 12:22:00,SystemResetWarning,0826.1,5.00,000.00,025.9,025.1,000.0,034.4,027.7,013.8,0000.0,0007.80,0002.74,0001.75
2024-04-17 12:23:00,SystemResetWarning,0826.2,5.00,000.00,025.9,025.1,000.0,034.4,027.7,013.8,0000.0,0007.74,0002.69,0001.76
2024-04-17 12:24:00,SystemResetWarning,0826.2,5.00,000.00,025.9,025.1,000.0,034.4,027.7,013.7,0000.0,0007.74,0002.65,0001.76
2024-04-17 12:25:00,SystemResetWarning,0826.2,5.00,000.00,025.9,025.1,000.0,034.3,027.6,013.4,0000.0,0007.82,0002.69,0001.76
2024-04-17 12:26:00,SystemResetWarning,0826.1,5.00,000.00,025.8,025.1,000.0,034.3,027.7,013.4,0000.0,0007.83,0002.68,0001.76
2024-04-17 12:27:00,SystemResetWarning,0826.1,5.00,000.00,025.8,025.1,000.0,034.3,027.7,013.3,0000.0,0007.73,0002.70,0001.75
2024-04-17 12:28:00,SystemResetWarning,0826.1,5.00,000.00,025.9,025.1,000.0,034.3,027.7,013.2,0000.0,0007.32,0002.71,0001.75
2024-04-17 12:29:00,SystemResetWarning,0826.1,5.00,000.00,025.8,025.1,000.0,034.3,027.7,013.2,0000.0,0007.42,0002.70,0001.75
2024-04-17 12:30:00,SystemResetWarning,0826.1,5.01,000.00,025.9,025.1,000.0,034.3,027.7,013.2,0000.0,0007.14,0002.70,0001.74
2024-04-17 12:31:00,SystemResetWarning,0826.1,5.00,000.00,025.9,025.1,000.0,034.3,027.7,013.2,0000.0,0006.89,0002.66,0001.75
2024-04-17 12:32:00,SystemResetWarning,0826.2,5.01,000.00,025.8,025.1,000.0,034.3,027.7,013.2,0000.0,0006.23,0002.73,0001.74
2024-04-17 12:33:00,SystemResetWarning,0826.2,5.00,000.00,025.9,025.1,000.0,034.3,027.7,013.2,0000.0,0006.30,0002.72,0001.74
2024-04-17 12:34:00,SystemResetWarning,0826.2,4.99,000.00,025.9,025.1,000.0,034.3,027.7,013.2,0000.0,0006.32,0002.73,0001.74
2024-04-17 12:35:00,SystemResetWarning,0826.2,4.99,000.00,025.9,025.1,000.0,034.3,027.7,013.2,0000.0,0006.23,0002.72,0001.73
2024-04-17 12:36:00,SystemResetWarning,0826.2,5.00,000.00,025.9,025.1,000.0,034.3,027.7,013.5,0000.0,0006.11,0002.70,0001.72
2024-04-17 12:37:00,SystemResetWarning,0826.3,5.01,000.00,025.8,025.1,000.0,034.3,027.7,013.9,0000.0,0006.06,0002.68,0001.72
2024-04-17 12:38:00,SystemResetWarning,0826.2,5.00,000.00,025.8,025.1,000.0,034.3,027.7,013.8,0000.0,0006.12,0002.71,0001.72
2024-04-17 12:39:00,SystemResetWarning,0826.2,5.00,000.00,025.8,025.1,000.0,034.3,027.7,013.8,0000.0,0005.99,0002.65,0001.73
2024-04-17 12:40:00,SystemResetWarning,0826.2,5.01,000.00,025.8,025.1,000.0,034.3,027.7,014.0,0000.0,0006.19,0002.70,0001.75
2024-04-17 12:41:00,SystemResetWarning,0826.2,5.00,000.00,025.8,025.1,000.0,034.3,027.7,014.3,0000.0,0006.59,0002.64,0001.75
2024-04-17 12:42:00,SystemResetWarning,0826.2,5.01,000.00,025.8,025.1,000.0,034.3,027.6,014.1,0000.0,0007.00,0002.62,0001.75
2024-04-17 12:43:00,SystemResetWarning,0826.2,5.00,000.00,025.8,025.1,000.0,034.3,027.6,013.7,0000.0,0007.28,0002.61,0001.77
2024-04-17 12:44:00,SystemResetWarning,0826.2,4.99,000.00,025.8,025.1,000.0,034.3,027.6,013.5,0000.0,0007.24,0002.59,0001.77
2024-04-17 12:45:00,SystemResetWarning,0826.2,5.00,000.00,025.8,025.1,000.0,034.3,027.7,013.4,0000.0,0007.31,0002.64,0001.76
2024-04-17 12:46:00,SystemResetWarning,0826.2,4.99,000.00,025.8,025.1,000.0,034.3,027.7,013.4,0000.0,0007.30,0002.64,0001.77
2024-04-17 12:47:00,SystemResetWarning,0826.2,4.99,000.00,025.8,025.1,000.0,034.3,027.7,013.4,0000.0,0007.65,0002.74,0001.80
2024-04-17 12:48:00,SystemResetWarning,0826.2,5.00,000.00,025.8,025.1,000.0,034.3,027.7,013.3,0000.0,0007.92,0002.70,0001.80
2024-04-17 12:49:00,SystemResetWarning,0826.2,5.01,000.00,025.8,025.1,000.0,034.3,027.7,013.3,0000.0,0008.12,0002.65,0001.81
2024-04-17 12:50:00,SystemResetWarning,0826.2,5.00,000.00,025.8,025.1,000.0,034.3,027.6,013.3,0000.0,0008.14,0002.66,0001.80
2024-04-17 12:51:00,SystemResetWarning,0826.2,5.00,000.00,025.8,025.1,000.0,034.3,027.7,013.4,0000.0,0007.98,0002.58,0001.79
2024-04-17 12:52:00,SystemResetWarning,0826.2,5.00,000.00,025.8,025.1,000.0,034.3,027.7,014.1,0000.0,0007.45,0002.60,0001.80
2024-04-17 12:53:00,SystemResetWarning,0826.2,5.00,000.00,025.8,025.1,000.0,034.3,027.6,014.2,0000.0,0006.90,0002.61,0001.82
2024-04-17 12:54:00,SystemResetWarning,0826.2,4.99,000.00,025.8,025.1,000.0,034.3,027.6,014.0,0000.0,0005.84,0002.58,0001.82
2024-04-17 12:55:00,SystemResetWarning,0826.2,5.00,000.00,025.8,025.1,000.0,034.3,027.6,014.1,0000.0,0006.13,0002.65,0001.83
2024-04-17 12:56:00,SystemResetWarning,0826.2,5.01,000.00,025.8,025.1,000.0,034.3,027.6,013.9,0000.0,0007.57,0002.66,0001.85
2024-04-17 12:57:00,SystemResetWarning,0826.2,5.01,000.00,025.8,025.1,000.0,034.3,027.6,013.9,0000.0,0007.91,0002.68,0001.83
2024-04-17 12:58:00,SystemResetWarning,0826.2,4.99,000.00,025.8,025.1,000.0,034.3,027.6,013.9,0000.0,0007.75,0002.67,0001.82
2024-04-17 12:59:00,SystemResetWarning,0826.2,4.99,000.00,025.8,025.1,000.0,034.3,027.6,014.4,0000.0,0007.62,0002.73,0001.81
